Date String (YYYY-MM-DD hh:mm:ss) UTC,Instrument flags,absolute air pressure of the measurement (hPa),sample flow rate (lpm),inlet stack bypass flow (lpm),air temperature of the measurement (°C),ambient temperature measured by the external sensor (°C),aerosol sample conditioner tube jacket temperature (°C),OPC LED temperature (°C),internal box temperature (°C),relative humidity of the measurement (%),span deviation,mass concentration of particles derived from Lorenz-Mie calculation of OPC scattering (μg/m³),mass concentration of particles derived from Lorenz-Mie calculation of OPC scattering (μg/m³),mass concentration of particles derived from Lorenz-Mie calculation of OPC scattering (μg/m³)
DateTimeUTC,F1_M11,P_M11,Q1_M11,Q2_M11,T1_M11,T2_M11,T3_M11,T4_M11,T5_M11,U1_M11,ZSPAN_M11,X0_M11,X2_M11,X1_M11
2024-04-01 11:00:00,SystemResetWarning,0819.9,4.99,000.00,020.7,019.8,000.0,029.3,022.5,26.5,0000.0,0002.11,0001.57,0001.39
2024-04-01 11:01:00,SystemResetWarning,0819.8,5.02,000.00,020.7,019.8,000.0,029.3,022.5,26.4,0000.0,0001.98,0001.51,0001.37
2024-04-01 11:02:00,SystemResetWarning,0819.7,5.00,000.00,020.7,019.8,000.0,029.3,022.5,26.4,0000.0,0002.02,0001.48,0001.34
2024-04-01 11:03:00,SystemResetWarning,0819.8,4.99,000.00,020.7,019.8,000.0,029.3,022.4,26.4,0000.0,0002.01,0001.46,0001.32
2024-04-01 11:04:00,SystemResetWarning,0820.1,4.99,000.00,020.6,019.8,000.0,029.3,022.4,26.3,0000.0,0002.01,0001.45,0001.31
2024-04-01 11:05:00,SystemResetWarning,0819.7,5.00,000.00,020.6,019.7,000.0,029.3,022.4,26.3,0000.0,0001.95,0001.41,0001.28
2024-04-01 11:06:00,SystemResetWarning,0819.9,5.01,000.00,020.6,019.7,000.0,029.3,022.4,26.3,0000.0,0001.95,0001.41,0001.28
2024-04-01 11:07:00,SystemResetWarning,0819.8,5.00,000.00,020.6,019.7,000.0,029.3,022.4,26.3,0000.0,0001.98,0001.41,0001.26
2024-04-01 11:08:00,SystemResetWarning,0819.9,5.00,000.00,020.6,019.7,000.0,029.3,022.4,26.3,0000.0,0001.94,0001.39,0001.24
2024-04-01 11:09:00,SystemResetWarning,0819.7,5.00,000.00,020.6,019.7,000.0,029.3,022.4,26.3,0000.0,0001.84,0001.37,0001.22
2024-04-01 11:10:00,SystemResetWarning,0820.1,4.99,000.00,020.6,019.7,000.0,029.2,022.4,26.2,0000.0,0001.79,0001.35,0001.22
2024-04-01 11:11:00,SystemResetWarning,0820.1,5.00,000.00,020.6,019.7,000.0,029.2,022.4,26.2,0000.0,0001.78,0001.35,0001.21
2024-04-01 11:12:00,SystemResetWarning,0820.1,4.99,000.00,020.6,019.7,000.0,029.2,022.4,26.2,0000.0,0001.76,0001.34,0001.19
2024-04-01 11:13:00,SystemResetWarning,0820.2,5.01,000.00,020.6,019.7,000.0,029.2,022.4,26.2,0000.0,0001.64,0001.31,0001.17
2024-04-01 11:14:00,SystemResetWarning,0819.8,5.01,000.00,020.6,019.7,000.0,029.2,022.4,26.2,0000.0,0001.57,0001.27,0001.14
2024-04-01 11:15:00,SystemResetWarning,0819.8,5.00,000.00,020.6,019.8,000.0,029.2,022.4,26.1,0000.0,0001.55,0001.25,0001.12
2024-04-01 11:16:00,SystemResetWarning,0820.1,4.99,000.00,020.6,019.8,000.0,029.2,022.4,26.1,0000.0,0001.53,0001.23,0001.11
2024-04-01 11:17:00,SystemResetWarning,0820.2,4.99,000.00,020.6,019.8,000.0,029.2,022.4,26.1,0000.0,0001.52,0001.22,0001.09
2024-04-01 11:18:00,SystemResetWarning,0820.1,5.01,000.00,020.6,019.8,000.0,029.2,022.4,26.1,0000.0,0001.44,0001.18,0001.07
2024-04-01 11:19:00,SystemResetWarning,0819.7,5.01,000.00,020.6,019.8,000.0,029.2,022.4,26.0,0000.0,0001.43,0001.17,0001.07
2024-04-01 11:20:00,SystemResetWarning,0819.9,4.98,000.00,020.6,019.8,000.0,029.2,022.4,26.1,0000.0,0001.41,0001.15,0001.05
2024-04-01 11:21:00,SystemResetWarning,0819.6,4.99,000.00,020.6,019.8,000.0,029.2,022.4,26.1,0000.0,0001.38,0001.12,0001.03
2024-04-01 11:22:00,SystemResetWarning,0819.6,5.01,000.00,020.6,019.8,000.0,029.2,022.4,26.1,0000.0,0001.32,0001.09,0001.00
2024-04-01 11:23:00,SystemResetWarning,0819.9,5.01,000.00,020.6,019.8,000.0,029.2,022.4,26.1,0000.0,0001.28,0001.06,0000.98
2024-04-01 11:24:00,SystemResetWarning,0819.7,5.01,000.00,020.6,019.8,000.0,029.2,022.4,26.0,0000.0,0001.31,0001.06,0000.98
2024-04-01 11:25:00,SystemResetWarning,0819.7,5.00,000.00,020.5,019.8,000.0,029.2,022.4,26.0,0000.0,0001.32,0001.06,0000.97
2024-04-01 11:26:00,SystemResetWarning,0820.0,5.00,000.00,020.6,019.8,000.0,029.2,022.4,26.1,0000.0,0001.32,0001.06,0000.97
2024-04-01 11:27:00,SystemResetWarning,0820.1,4.99,000.00,020.5,019.8,000.0,029.2,022.4,26.1,0000.0,0001.31,0001.06,0000.96
2024-04-01 11:28:00,SystemResetWarning,0819.8,5.00,000.00,020.5,019.8,000.0,029.1,022.4,26.2,0000.0,0001.29,0001.05,0000.94
2024-04-01 11:29:00,SystemResetWarning,0820.0,5.00,000.00,020.5,019.8,000.0,029.1,022.4,26.5,0000.0,0001.28,0001.05,0000.93
2024-04-01 11:30:00,SystemResetWarning,0819.7,5.00,000.00,020.5,019.8,000.0,029.1,022.4,26.8,0000.0,0001.27,0001.04,0000.92
2024-04-01 11:31:00,SystemResetWarning,0819.7,5.00,000.00,020.5,019.8,000.0,029.1,022.4,26.4,0000.0,0001.24,0001.02,0000.91
2024-04-01 11:32:00,SystemResetWarning,0819.7,5.00,000.00,020.5,019.8,000.0,029.1,022.4,26.4,0000.0,0001.25,0001.02,0000.91
2024-04-01 11:33:00,SystemResetWarning,0819.7,5.01,000.00,020.5,019.9,000.0,029.1,022.4,26.3,0000.0,0001.29,0001.03,0000.90
2024-04-01 11:34:00,SystemResetWarning,0819.7,5.01,000.00,020.5,019.9,000.0,029.1,022.4,26.3,0000.0,0001.29,0001.03,0000.90
2024-04-01 11:35:00,SystemResetWarning,0819.8,5.00,000.00,020.5,019.9,000.0,029.1,022.4,26.3,0000.0,0001.28,0001.02,0000.89
2024-04-01 11:36:00,SystemResetWarning,0819.8,4.99,000.00,020.5,019.9,000.0,029.1,022.4,26.3,0000.0,0001.26,0001.01,0000.89
2024-04-01 11:37:00,SystemResetWarning,0819.9,5.01,000.00,020.5,019.9,000.0,029.1,022.4,26.4,0000.0,0001.22,0001.00,0000.88
2024-04-01 11:38:00,SystemResetWarning,0820.3,4.99,000.00,020.5,019.9,000.0,029.1,022.4,26.4,0000.0,0001.19,0000.97,0000.87
2024-04-01 11:39:00,SystemResetWarning,0820.3,5.00,000.00,020.5,019.9,000.0,029.1,022.4,26.4,0000.0,0001.18,0000.96,0000.87
2024-04-01 11:40:00,SystemResetWarning,0820.3,5.00,000.00,020.5,019.9,000.0,029.1,022.3,26.4,0000.0,0001.20,0000.96,0000.86
2024-04-01 11:41:00,SystemResetWarning,0820.1,5.00,000.00,020.5,019.9,000.0,029.1,022.3,26.4,0000.0,0001.24,0000.96,0000.85
2024-04-01 11:42:00,SystemResetWarning,0820.1,5.00,000.00,020.5,019.9,000.0,029.1,022.4,26.4,0000.0,0001.29,0000.98,0000.85
2024-04-01 11:43:00,SystemResetWarning,0820.2,4.99,000.00,020.5,019.9,000.0,029.1,022.3,26.5,0000.0,0001.28,0000.97,0000.85
2024-04-01 11:44:00,SystemResetWarning,0819.9,5.02,000.00,020.5,019.9,000.0,029.1,022.3,26.5,0000.0,0001.27,0000.97,0000.85
2024-04-01 11:45:00,SystemResetWarning,0819.8,5.00,000.00,020.5,019.9,000.0,029.1,022.3,26.5,0000.0,0001.25,0000.96,0000.86
2024-04-01 11:46:00,SystemResetWarning,0819.8,4.99,000.00,020.5,019.9,000.0,029.1,022.3,26.5,0000.0,0001.24,0000.96,0000.86
2024-04-01 11:47:00,SystemResetWarning,0819.8,4.99,000.00,020.5,019.9,000.0,029.1,022.3,26.5,0000.0,0001.24,0000.96,0000.86
2024-04-01 11:48:00,SystemResetWarning,0819.8,5.00,000.00,020.5,019.9,000.0,029.1,022.3,26.6,0000.0,0001.22,0000.95,0000.86
2024-04-01 11:49:00,SystemResetWarning,0819.9,5.01,000.00,020.5,019.9,000.0,029.1,022.3,26.6,0000.0,0001.21,0000.95,0000.85
2024-04-01 11:50:00,SystemResetWarning,0819.8,5.01,000.00,020.5,019.8,000.0,029.1,022.3,26.6,0000.0,0001.26,0000.98,0000.86
2024-04-01 11:51:00,SystemResetWarning,0819.7,5.00,000.00,020.5,019.8,000.0,029.1,022.3,26.6,0000.0,0001.31,0001.01,0000.89
2024-04-01 11:52:00,SystemResetWarning,0819.9,4.99,000.00,020.5,019.9,000.0,029.1,022.3,26.6,0000.0,0001.30,0001.02,0000.91
2024-04-01 11:53:00,SystemResetWarning,0819.9,4.99,000.00,020.5,019.8,000.0,029.1,022.3,26.7,0000.0,0001.25,0001.02,0000.93
2024-04-01 11:54:00,SystemResetWarning,0819.8,5.01,000.00,020.5,019.8,000.0,029.1,022.3,26.6,0000.0,0001.31,0001.05,0000.95
2024-04-01 11:55:00,SystemResetWarning,0819.8,5.01,000.00,020.5,019.8,000.0,029.1,022.3,26.6,0000.0,0001.29,0001.04,0000.95
2024-04-01 11:56:00,SystemResetWarning,0820.1,5.00,000.00,020.5,019.8,000.0,029.1,022.3,26.6,0000.0,0001.28,0001.04,0000.96
2024-04-01 11:57:00,SystemResetWarning,0820.4,4.99,000.00,020.5,019.8,000.0,029.1,022.3,26.6,0000.0,0001.26,0001.04,0000.95
2024-04-01 11:58:00,SystemResetWarning,0820.3,4.99,000.00,020.5,019.8,000.0,029.1,022.3,26.6,0000.0,0001.26,0001.04,0000.96
2024-04-01 11:59:00,SystemResetWarning,0819.9,5.00,000.00,020.5,019.8,000.0,029.1,022.3,26.9,0000.0,0001.40,0001.09,0000.99
